User: anonymous   Login
Location: Corte Bragagnani
(45.3000°N, 11.1000°E)
Time: 02:18:01
(UTC+00:00)
Language:

Cosmos 2344 - Orbit

View from above orbital plane
View from above orbital plane
View from above satellite
View from above satellite

Ground track
Ground track

The orbit data is extracted from the following two-line orbital elements,

1 24827U 97028A   20192.83372512 -.00000250  00000-0 -25239-2 0  9996
2 24827  63.3188 236.9847 1024950  42.2516 120.2291 11.07943432934551
Epoch (UTC): 10 July 2020 20:00:33
Eccentricity: 0.1024950
inclination: 63.3188°
perigee height: 1250 km
apogee height: 2992 km
right ascension of ascending node: 236.9847°
argument of perigee: 42.2516°
revolutions per day: 11.07943432
mean anomaly at epoch: 120.2291°
orbit number at epoch: 93455

The dashed part of the orbit path shows where the satellite is in the earth's shadow,  

DLR